Home > Weather > Pembroke Pines > Past weeks

Flag for U.S.A. Weather for the Past 2 Weeks in Pembroke Pines, Florida, U.S.A.

Now
67 °F

Sunny.


Feels Like: 67 °F
Forecast: 45 / 68 °F
Wind: 15 mph from West

Location: North Perry Airport

Current Time: Feb 8, 2016 at 5:03:09 PM

Latest Report: Feb 8, 2016 at 3:53 PM


Visibility: 10 mi

Pressure: 30.03 "Hg

Humidity: 47%

Dew point: 46 °F

Location of Pembroke PinesLocation

Historic Weather in Pembroke Pines — Graph

°F

Pembroke Pines Temperature Yesterday

Maximum temperature yesterday: 64 °F (at 2:53 PM)
Minimum temperature yesterday: 52 °F (at 7:53 AM)
Average temperature yesterday: 57 °F

High & Low Weather Summary for the Past Weeks

 TemperatureHumidityPressure
High81 °F (Feb 2, 11:53 AM)100% (Jan 28, 5:53 AM)30.30 "Hg (Jan 28, 5:53 AM)
Low46 °F (Feb 8, 6:53 AM)34% (Feb 7, 3:53 PM)29.79 "Hg (Jan 28, 4:53 PM)
Average68 °F74%30.08 "Hg
* Reported Jan 24 2:53 PM — Feb 8 2:53 PM, Pembroke Pines, Weather by CustomWeather, © 2016

Note: Actual official high and low records may vary slightly from our data, if they occured in-between our weather recording intervals... More about our weather records

Advertising

Pembroke Pines Weather History for the Previous 24 Hours

 ConditionsComfort  
Time TempWeatherWind HumidityBarometerVisibility
2:53 PM
Mon, Feb 8
66 °FSunny.12 mph45%30.04 "Hg10 mi
1:53 PM66 °FSunny.14 mph42%30.06 "Hg10 mi
12:53 PM64 °FSunny.12 mph43%30.10 "Hg10 mi
11:53 AM63 °FSunny.8 mph40%30.12 "Hg10 mi
10:53 AM61 °FSunny.14 mph36%30.16 "Hg10 mi
9:53 AM59 °FSunny.10 mph39%30.17 "Hg10 mi
8:53 AM55 °FSunny.8 mph62%30.15 "Hg10 mi
7:53 AM50 °FSunny.3 mph80%30.14 "Hg10 mi
6:53 AM46 °FClear.5 mph79%30.13 "Hg10 mi
5:53 AM47 °FClear.3 mph74%30.10 "Hg10 mi
4:53 AM47 °FClear.3 mph71%30.09 "Hg10 mi
3:53 AM48 °FClear.5 mph66%30.07 "Hg10 mi
2:53 AM50 °FClear.9 mph61%30.08 "Hg10 mi
1:53 AM50 °FClear.12 mph61%30.10 "Hg10 mi
12:53 AM51 °FClear.10 mph59%30.10 "Hg10 mi
11:53 PM
Sun, Feb 7
52 °FClear.12 mph61%30.12 "Hg10 mi
10:53 PM52 °FClear.14 mph61%30.12 "Hg10 mi
9:53 PM53 °FClear.10 mph61%30.10 "Hg10 mi
8:53 PM55 °FClear.12 mph57%30.08 "Hg10 mi
7:53 PM57 °FClear.6 mph51%30.06 "Hg10 mi
6:53 PM58 °FClear.7 mph43%30.04 "Hg10 mi
5:53 PM61 °FSunny.15 mph36%30.03 "Hg10 mi
Weather by CustomWeather, © 2016

See weather overviewHow to use our weather pages